Find Starlink 36664

NORAD ID: 68965 Int'l Des: 2026-099 Owner: SPXS Country: US Constellation: starlink operational
LEOCIRCULAR

实时位置

正在加载3D地球...

关于 Starlink 36664

正在加载描述...

即将过境

Passes for default location (London). Set your location on the main map for personalized predictions.

高度历史

Loading altitude history...

两行轨道根数

1 68965C 26099Q 26125.82340278 -.01469200 00000+0 -23811-2 0 1251
2 68965 53.1617 7.3022 0000555 106.4531 58.3510 16.03425230 17
Epoch: May 5, 2026 • Age: 32 hours

当前状态

高度 288.0 km
速度 7.73 km/s
星下点 -53.18°S, 66.72°W
发射日期 May 1, 2026
运行时间 4 days
类型 internet

技术详情

分类 Payload
质量 575.00 kg
干质量 530.00 kg
总质量 575.00 kg
长度 0.30 m
直径 4.10 m
跨度 29.00 m
形状 Box + pan
制造商 SPXS
平台类型 Starlink V2MO
阶段状态 In Orbit
所有者/国家 SPXS/US

Most Searched